Regional Weather Roundup
Issued by NWS

Home | Current Version | Previous Version | Text Only | Print | Product List | Glossary On
Versions: 1 2 3 4 5 6 7 8 9 10 11 12 13 14 15 16 17 18 19 20 21 22 23 24 25 26 27 28 29 30 31 32 33 34 35 36 37 38 39 40 41 42 43 44 45 46 47 48 49 50
748
ASUS44 KJAN 210403
RWRMS

MISSISSIPPI HOURLY WEATHER ROUNDUP
NATIONAL WEATHER SERVICE JACKSON MS
1000 PM CST THU NOV 20 2014

NOTE: "FAIR: INDICATES FEW OR NO CLOUDS BELOW 12,000 FEET WITH NO
SIGNIFICANT WEATHER AND/OR OBSTRUCTIONS TO VISIBILITY.

MSZ001>002-007>008-010>013-018>021-025>028-034>036-210500-
NORTHWEST MISSISSIPPI

CITY           SKY/WX    TMP DP  RH WIND       PRES   REMARKS
CLARKSDALE     CLOUDY    46  39  76 CALM      30.23R
CLEVELAND      MOCLDY    50  48  95 SE3       30.20R
GREENWOOD      CLOUDY    51  47  86 CALM      30.21R
GREENVILLE     CLOUDY    52  47  83 E3        30.19R
GRENADA        FAIR      45  43  93 CALM      30.23S
OLIVE BRANCH   CLEAR     43  30  61 E5        30.24R
OXFORD         FAIR      41  32  70 SE5       30.24S
TUNICA         CLOUDY    43  36  75 CALM      30.24R
$$

MSZ003>006-009-014>017-022>024-029>033-037>039-210500-
NORTHEAST MISSISSIPPI

CITY           SKY/WX    TMP DP  RH WIND       PRES   REMARKS
COLUMBUS AFB   MOCLDY    44  42  89 CALM      30.24R
CORINTH        FAIR      41  32  70 CALM      30.25R HAZE
GOLDN TRIANGLE CLOUDY    50  43  76 SE3       30.23S
STARKVILLE       N/A    N/A N/A N/A MISG        N/A
TUPELO         PTCLDY    40  32  73 NE6       30.25R
$$

MSZ040-058-210500-
CENTRAL MISSISSIPPI

CITY           SKY/WX    TMP DP  RH WIND       PRES   REMARKS
JACKSON INTL   CLEAR     47  45  93 CALM      30.22R
JACKSON HAWKNS CLEAR     49  46  90 CALM      30.22R
MERIDIAN KEY   CLEAR     43  42  97 CALM      30.24R
MERIDIAN NAS   CLEAR     47  44  90 CALM      30.24R
RAYMOND        FAIR      46  41  81 CALM      30.21R FOG
VICKSBURG      CLEAR     49  46  90 SE5       30.20R
$$

MSZ059>079-210500-
SOUTH MISSISSIPPI

CITY           SKY/WX    TMP DP  RH WIND       PRES   REMARKS
BROOKHAVEN     FAIR      54  46  76 S9        30.22S
HATTIESBURG    CLEAR     49  43  80 CALM      30.25S
MCCOMB         CLEAR     48  43  82 S8        30.22S
NATCHEZ        CLEAR     55  45  67 S12       30.20S
PINE BELT      CLEAR     48  39  71 S5        30.24S
$$

MSZ080>082-210500-
COASTAL MISSISSIPPI

CITY           SKY/WX    TMP DP  RH WIND       PRES   REMARKS
BILOXI         CLEAR     49  49  99 NE2       30.25R
PASCAGOULA     CLEAR     40  40 100 CALM      30.26S FOG
GULFPORT       CLEAR     46  43  89 CALM      30.25S
$$



USA.gov is the U.S. government's official web portal to all federal, state and local government web resources and services.